Wind_Speed
16 16 12 8 8 11 14 13 12 11 10 9 9 8 8 9 7 7 9 13 15 14 14 15 16 15 15 15 14 13 12 11 10 9 10 11 12 11 11 12 13 14 15 14 14 16 21 23 25 27 28 30 31 32 33 33 33 34 34 33 34 35 34 34 35 35 32 29 27 25 24 22 19 20 21 20 20 19 18 18 17 16 14 11 10 11 11
14 15 13 9 8 8 11 12 9 7 7 8 9 8 9 12 9 8 14 17 16 15 16 18 15 11 11 11 9 10 11 10 10 10 11 12 12 12 13 13 13 14 15 15 15 15 18 22 24 26 27 29 31 32 33 33 34 35 35 34 35 35 35 35 36 36 33 30 27 26 25 23 21 21 22 21 21 21 21 20 19 17 14 12 12 13 14
11 13 12 9 8 7 8 7 5 5 4 4 4 4 6 7 5 6 14 16 11 8 10 10 7 6 8 9 9 10 10 10 11 11 11 12 11 11 12 12 13 13 14 14 14 14 18 24 27 28 29 31 32 33 34 35 35 36 37 37 37 37 37 37 38 36 34 31 28 27 26 24 22 22 23 22 22 22 22 21 20 17 15 14 15 15 15
7 8 7 7 7 7 6 5 4 5 4 1 2 2 4 5 3 4 9 12 9 8 5 6 5 7 10 11 11 10 9 9 11 12 11 10 11 11 11 12 12 13 13 13 13 14 19 25 27 29 30 30 30 31 33 35 36 36 38 38 38 38 38 38 37 36 35 33 30 28 26 25 24 24 24 24 23 24 24 22 21 18 17 17 16 16 16
5 5 8 7 5 5 2 5 4 3 6 6 3 3 2 2 5 8 7 9 7 5 7 8 6 8 11 10 8 7 8 8 8 9 9 9 9 10 10 10 11 13 12 12 14 18 22 26 30 33 34 33 33 34 35 36 37 37 38 39 39 39 38 38 36 36 36 34 31 29 27 26 26 26 26 26 26 27 26 24 21 20 20 19 18 18 18
5 5 5 6 4 4 3 6 2 4 8 10 8 4 2 1 2 6 6 6 5 6 8 9 8 7 8 8 6 6 8 8 7 7 8 8 8 8 8 9 10 10 10 11 16 21 25 29 33 34 34 33 34 35 35 36 36 37 37 37 37 37 36 36 35 34 33 33 32 31 29 28 28 28 27 28 29 28 26 23 22 22 22 21 19 18 19
4 2 5 5 4 4 5 6 2 7 10 12 10 5 4 5 5 7 8 8 10 11 9 8 7 5 4 5 5 7 9 9 8 8 7 8 8 8 8 9 9 8 8 10 14 19 25 29 30 29 30 30 31 33 34 34 35 37 38 37 36 36 33 32 31 30 29 30 32 32 30 29 29 29 28 29 29 28 26 24 24 24 24 23 21 19 19
3 2 5 4 6 5 5 3 2 6 7 8 9 7 8 9 5 6 8 7 9 14 14 11 9 7 5 5 2 4 6 7 8 9 8 9 9 8 9 10 10 11 13 15 19 22 24 25 25 27 29 31 31 31 32 33 33 35 35 32 28 28 28 27 26 25 25 29 32 32 31 29 28 28 29 30 30 28 26 25 25 25 25 23 21 20 19
2 4 3 1 1 4 6 5 3 1 2 5 7 6 5 8 8 4 7 9 8 10 12 11 9 8 7 6 2 4 6 7 8 8 8 9 9 9 10 12 15 18 21 24 24 24 25 26 28 30 31 33 33 31 29 30 31 32 33 30 25 25 27 27 26 26 25 29 32 31 29 28 28 30 31 29 27 25 24 24 24 24 25 25 23 23 22
1 5 4 3 4 3 3 6 6 4 3 9 10 6 3 7 10 6 4 11 10 8 10 9 9 8 8 5 2 6 6 7 7 6 6 8 8 9 10 12 14 18 22 23 22 21 22 25 27 30 32 33 33 30 28 29 29 31 33 32 28 29 30 29 29 29 27 28 30 29 27 28 30 30 27 24 23 23 23 24 24 25 25 24 24 24 24
2 5 4 2 3 2 4 6 7 7 1 5 9 7 3 6 9 8 1 10 11 10 10 9 8 8 6 4 5 6 6 7 7 7 7 6 6 8 11 13 14 17 19 19 18 19 21 24 28 33 35 36 33 29 27 28 29 30 31 30 28 30 31 31 31 30 27 26 28 29 29 30 29 25 23 24 26 26 25 25 26 26 24 23 22 23 24
2 4 3 1 2 1 3 6 8 8 3 5 8 4 3 7 8 7 2 7 7 7 8 7 6 6 6 6 5 6 7 6 5 6 7 6 6 7 10 13 14 15 16 17 16 17 19 20 22 22 22 24 25 23 24 28 31 31 33 32 31 32 33 33 31 28 26 26 28 29 29 29 27 24 22 23 25 24 24 23 24 24 24 24 25 26 25
3 4 3 1 1 1 3 7 9 9 4 8 7 3 6 4 5 6 6 8 6 6 7 7 5 4 5 6 5 4 2 2 1 2 4 5 7 9 9 10 11 11 13 15 16 16 15 14 14 12 10 12 15 12 11 19 28 33 36 34 32 33 33 30 28 26 26 28 28 28 28 27 24 21 19 19 20 20 20 21 23 24 24 24 26 27 25
2 3 3 2 0 2 6 9 9 6 4 5 3 4 5 0 4 6 7 8 8 8 8 7 5 4 4 2 1 4 4 4 3 3 5 6 6 8 10 11 12 14 15 16 17 17 18 20 23 23 21 19 17 13 10 18 28 34 36 34 32 32 30 28 27 26 26 26 25 25 25 24 21 18 17 17 17 16 18 22 24 26 26 25 25 24 22
2 3 3 2 2 4 10 11 6 5 4 3 5 3 2 2 5 7 7 7 7 8 8 7 5 5 4 4 6 6 4 4 5 5 5 6 7 8 10 11 13 16 15 14 15 14 15 19 23 27 29 25 21 18 19 30 33 31 30 31 31 29 27 26 25 24 22 22 22 23 22 21 19 18 17 17 15 15 19 23 24 25 25 23 22 21 19
2 3 2 1 3 6 10 8 5 5 4 0 2 3 3 2 4 5 6 5 3 6 8 7 6 7 7 6 5 5 5 4 5 5 5 6 7 8 9 10 14 17 16 15 16 15 15 18 20 24 28 25 20 19 24 34 30 25 26 27 26 24 24 24 22 20 19 19 19 19 19 18 17 17 17 16 15 17 20 22 22 24 23 21 21 20 19
3 4 3 4 3 4 8 10 8 9 10 8 7 7 5 4 4 3 5 5 4 5 8 8 8 7 6 5 5 6 5 4 4 5 5 6 7 8 11 12 14 18 19 18 19 18 16 18 19 22 25 24 21 19 23 28 23 21 21 22 22 22 21 19 18 17 17 16 16 16 16 16 16 17 17 17 18 18 20 21 22 22 22 22 21 20 18
4 5 2 1 2 5 9 10 10 12 13 11 10 10 8 7 7 5 5 6 6 6 7 8 7 5 4 5 6 5 5 4 4 5 5 6 7 9 11 12 14 18 20 19 20 19 17 17 20 22 22 20 19 13 11 14 17 17 12 13 17 17 16 15 16 16 16 15 14 14 14 14 15 15 16 17 17 18 20 21 21 22 22 22 21 20 19
4 3 2 2 4 4 5 8 9 11 12 10 10 10 8 8 10 9 6 5 6 5 6 7 6 4 5 7 6 4 4 4 3 4 4 4 5 7 9 12 15 18 18 17 17 17 17 17 20 23 22 21 22 17 7 7 14 16 11 14 15 15 16 17 16 16 16 15 15 14 13 14 14 14 14 14 14 16 19 20 20 21 21 20 19 19 19
4 3 4 1 4 4 4 6 6 7 9 10 9 9 8 9 10 10 8 4 5 7 7 6 4 4 5 7 5 3 3 3 3 4 4 4 3 4 7 10 13 15 15 15 16 17 17 19 23 26 25 23 23 22 12 9 11 15 17 17 14 14 16 17 17 16 15 14 15 16 14 13 13 12 11 12 12 14 16 17 18 20 20 19 18 17 16
4 2 3 2 4 5 4 4 4 5 7 9 9 10 10 11 12 13 12 9 7 7 5 3 3 4 4 4 5 4 2 3 3 3 4 5 4 5 6 8 11 13 14 15 17 17 17 20 23 26 26 23 21 20 16 15 15 15 15 13 12 15 16 16 15 14 13 14 15 15 13 12 11 10 10 10 11 12 13 14 16 18 18 17 15 14 13
2 2 3 3 4 2 2 1 3 4 6 9 9 8 9 9 6 8 11 10 9 8 4 1 3 6 3 2 4 5 3 3 3 3 4 6 6 6 8 9 11 14 15 16 19 19 19 20 22 22 22 22 20 17 13 8 5 6 10 13 14 16 15 14 13 13 12 12 12 11 11 11 11 10 9 9 10 11 12 13 14 14 14 13 11 11 12
2 3 4 4 4 3 2 1 3 3 3 7 8 8 7 5 3 4 4 7 9 9 8 6 3 3 5 4 4 5 4 4 6 7 7 8 9 10 11 12 13 15 16 19 21 22 22 22 21 19 18 17 14 9 4 4 6 0 10 14 14 13 12 11 10 9 9 10 10 10 10 11 10 11 10 10 10 12 12 12 12 11 10 8 6 6 8
4 4 5 4 5 5 3 3 4 3 4 6 7 6 5 2 2 3 5 7 7 8 8 9 8 3 5 6 5 6 5 5 7 9 9 10 13 15 15 16 16 17 18 20 21 23 23 22 21 20 16 11 6 3 2 3 2 5 12 13 11 10 8 7 7 7 8 9 10 11 12 12 12 13 12 11 10 10 9 9 8 7 5 4 2 3 4
6 6 5 7 8 7 4 5 5 5 5 5 6 5 4 4 5 6 6 6 6 7 6 7 10 7 3 8 6 6 7 8 10 12 11 10 12 13 14 16 18 19 21 20 20 20 19 16 17 17 12 5 0 3 1 5 9 12 13 12 10 8 7 6 7 8 9 10 11 12 13 14 14 14 14 14 13 10 8 6 5 4 2 2 2 4 5
7 8 9 10 9 6 5 6 7 8 7 6 6 5 4 6 7 7 6 6 6 7 6 5 10 10 2 6 7 6 7 8 10 12 11 11 11 12 13 16 18 19 19 17 16 16 16 16 17 15 9 7 9 10 11 14 16 15 13 11 9 7 6 7 8 8 9 10 12 13 14 14 14 15 15 15 13 11 9 8 6 5 4 4 4 5 5
9 7 9 11 10 9 8 7 6 7 7 8 8 7 7 9 9 8 8 8 9 10 10 9 12 12 7 0 3 4 4 5 9 11 10 12 15 16 17 19 18 17 17 16 16 18 19 19 17 12 10 11 11 14 18 20 18 15 13 11 8 7 5 6 8 8 8 9 10 12 13 13 14 15 15 14 13 12 12 11 10 8 7 7 6 6 5
11 9 10 10 7 5 5 5 6 7 8 8 7 7 8 9 10 8 9 10 10 10 11 13 15 13 9 6 4 2 3 3 4 6 9 13 16 16 16 18 18 17 18 18 17 16 15 12 9 7 6 8 12 17 20 19 16 14 11 9 7 7 7 7 7 7 6 7 8 9 10 11 12 12 13 13 13 13 13 12 11 10 10 10 8 8 7
9 9 9 8 6 5 6 8 8 9 9 9 8 8 8 9 8 7 7 7 7 7 8 11 13 13 12 11 10 5 3 4 5 8 12 14 13 13 15 16 15 15 15 14 11 9 7 6 5 6 7 10 13 15 15 14 13 11 9 8 8 8 8 7 7 6 5 5 6 7 8 9 10 11 11 11 11 11 11 12 12 12 13 13 12 11 10
7 8 8 8 8 10 10 9 8 8 8 9 9 8 8 8 7 7 7 7 7 7 7 7 9 11 12 12 12 10 7 6 9 13 14 10 6 8 14 16 14 11 9 9 10 10 12 13 14 12 10 9 10 11 10 9 9 8 7 7 7 7 7 6 6 6 6 6 6 7 7 8 10 11 11 10 9 9 10 12 13 14 16 16 16 15 14
8 10 10 9 9 10 9 7 6 7 7 7 7 8 8 8 8 7 7 6 5 6 7 7 7 8 10 11 14 16 15 11 9 9 8 5 4 6 12 16 14 10 11 14 15 16 18 19 17 15 14 13 13 12 8 4 4 5 5 6 6 6 6 6 7 8 9 9 8 7 7 9 10 10 10 10 9 9 10 11 13 14 16 17 17 16 15
9 11 11 9 8 8 7 6 6 7 7 7 7 7 6 6 6 7 7 6 5 6 7 7 7 9 12 15 17 18 16 12 6 1 3 5 5 6 9 13 14 15 17 18 18 19 21 20 18 16 16 16 14 11 6 4 4 4 5 7 8 8 8 8 8 9 10 9 7 7 8 9 9 9 9 10 10 10 11 11 12 13 15 17 16 15 12
9 8 8 8 7 7 7 6 6 6 6 6 5 5 5 5 5 5 5 6 7 7 7 8 11 14 17 18 18 17 15 9 2 3 5 7 8 8 9 12 15 17 18 17 17 19 20 20 18 17 15 14 12 10 9 8 8 7 7 9 10 10 9 9 10 10 9 7 6 6 6 7 7 8 9 10 10 9 11 12 12 13 15 16 15 11 8
7 5 4 4 5 6 6 5 4 5 5 5 5 5 5 5 5 6 6 7 7 8 9 12 17 20 21 19 18 17 14 7 2 3 7 9 10 11 13 15 16 16 16 16 16 16 17 17 15 14 13 12 10 9 9 8 8 8 9 10 10 10 9 9 10 8 7 6 6 6 6 7 8 9 9 9 10 11 12 13 14 15 15 15 12 9 7
6 5 4 4 4 5 6 6 5 5 5 6 5 4 5 5 6 6 7 8 8 9 13 17 20 21 20 17 15 14 11 9 8 8 11 14 14 15 17 17 16 16 16 15 15 15 16 15 13 12 12 13 11 9 9 8 8 9 10 10 9 8 9 10 10 7 6 6 7 7 7 7 7 7 6 7 10 12 12 12 13 14 15 15 12 10 9
7 6 5 4 5 6 5 5 5 5 4 5 5 4 5 6 7 7 8 11 12 13 14 16 18 17 16 15 14 13 13 15 15 12 12 15 16 18 20 19 18 18 16 13 14 16 16 15 13 13 13 14 13 11 10 9 9 10 11 11 10 10 10 10 10 8 6 6 6 6 6 6 6 6 6 7 9 11 11 11 12 12 14 14 13 12 12
8 6 4 5 6 5 5 6 7 5 3 4 5 5 6 8 9 10 12 14 14 14 14 15 15 13 12 12 14 14 15 17 15 10 12 15 17 18 18 16 16 16 12 11 14 16 14 13 13 13 13 12 11 10 10 10 10 10 10 10 10 10 10 10 10 9 8 7 6 6 7 6 6 7 7 7 8 9 10 9 10 12 14 14 13 12 13
9 8 7 8 8 7 8 10 11 7 6 6 6 7 8 9 10 11 12 12 12 13 15 15 13 10 7 7 10 13 14 14 12 5 4 10 13 12 11 10 10 11 11 14 17 17 15 15 14 12 10 10 8 6 7 8 9 10 10 9 9 10 10 10 11 10 9 8 8 8 9 9 9 9 8 7 8 9 9 9 10 12 14 15 14 13 13
7 8 9 9 9 9 10 11 9 8 8 7 6 8 10 11 11 11 12 12 12 14 14 13 11 8 5 5 7 7 8 10 9 7 4 7 14 16 14 10 12 15 15 17 19 18 15 14 12 9 8 6 3 2 5 7 8 9 10 8 8 9 10 11 11 11 11 11 11 10 11 12 12 11 10 9 9 8 7 8 10 12 14 15 16 15 15
4 5 7 7 7 7 8 8 7 8 9 8 7 7 10 11 11 11 12 13 13 13 12 9 6 5 4 3 4 4 6 10 12 11 8 8 13 16 15 12 13 16 18 18 16 14 11 11 11 11 10 7 4 6 8 8 7 8 8 7 7 8 10 12 13 13 13 14 13 13 14 14 14 13 13 12 11 10 9 9 10 12 14 16 17 18 19
4 5 7 6 5 6 7 7 7 8 8 8 6 6 7 8 8 8 9 10 11 11 10 7 5 4 5 5 4 5 5 6 10 15 14 9 7 6 6 8 13 16 15 13 12 11 11 11 13 13 11 9 9 10 10 9 7 7 5 3 2 4 8 12 15 15 15 15 15 15 15 15 15 16 16 15 13 13 12 12 13 14 15 16 17 19 21
5 6 6 4 5 6 7 7 7 7 7 7 7 7 6 7 7 6 6 8 9 10 9 8 6 5 6 6 5 5 5 5 4 4 5 5 5 5 4 7 11 12 10 9 10 11 12 13 13 13 12 11 9 9 9 8 7 5 5 6 6 4 2 6 9 10 11 14 16 17 17 16 15 16 16 17 16 16 15 15 15 16 17 16 16 19 22
6 6 5 4 5 6 6 7 7 6 6 9 10 9 7 8 8 8 8 10 10 9 9 9 9 9 7 6 4 2 2 3 3 3 4 5 7 7 5 7 11 12 12 13 14 14 14 14 13 13 12 11 10 9 8 7 5 3 4 6 7 7 7 5 4 2 0 3 8 12 14 14 12 12 14 15 16 17 18 18 16 16 17 17 16 18 21
7 8 7 7 8 8 7 7 7 6 7 10 11 9 8 9 9 9 9 10 10 9 10 10 11 11 10 6 4 5 6 4 1 2 3 3 3 4 5 8 11 13 14 16 15 14 14 14 13 12 12 12 12 10 8 6 5 4 4 4 4 3 4 5 5 5 5 4 3 2 4 6 7 7 7 7 8 10 13 15 16 17 18 16 15 15 19
8 9 9 9 10 10 9 9 8 8 7 8 8 7 7 8 8 8 8 9 9 9 9 10 11 11 9 6 5 7 7 6 5 5 4 2 1 2 6 10 12 13 13 14 13 12 12 13 13 13 13 13 12 9 7 6 6 6 4 3 2 2 2 2 1 2 3 4 3 3 3 3 4 5 4 3 3 3 5 8 13 16 17 15 14 15 18
7 8 8 9 10 10 9 9 10 10 8 6 5 6 6 7 8 8 8 7 7 8 8 8 9 9 7 7 8 8 5 2 1 2 2 2 2 4 8 12 13 12 10 10 11 12 13 14 15 14 14 14 12 9 7 8 8 6 4 2 2 2 2 3 3 2 1 0 1 2 4 3 3 6 6 5 4 4 4 6 11 14 15 15 16 18 20
9 8 7 8 10 11 10 8 9 9 7 4 4 7 8 8 9 9 9 8 8 8 8 8 7 7 6 7 8 8 5 4 2 1 1 2 2 5 9 11 11 10 8 7 9 11 13 15 16 15 14 12 10 8 8 10 9 7 4 1 1 3 3 4 4 5 5 5 4 3 3 4 2 4 6 5 3 4 5 6 7 9 11 12 15 19 22
10 10 9 9 9 10 10 8 7 7 7 6 7 9 10 10 10 10 9 9 9 10 10 9 9 8 7 7 7 6 5 5 4 3 3 2 4 8 10 11 10 9 8 9 9 11 13 14 14 13 12 10 9 9 11 10 8 6 5 2 2 4 6 6 6 7 7 7 7 7 5 5 4 4 5 5 5 5 6 6 7 8 9 11 15 18 19
13 13 12 9 8 8 8 7 6 6 7 9 12 13 13 12 11 11 10 9 9 10 9 9 9 9 8 6 5 5 5 5 5 5 4 4 5 8 10 11 10 10 11 12 13 13 13 13 12 12 12 11 11 11 11 10 8 6 4 3 3 5 7 7 7 8 9 8 8 7 6 6 4 4 5 6 5 6 7 8 8 9 9 11 14 16 16
15 13 11 9 8 8 8 6 6 8 10 11 13 15 15 12 10 11 11 10 10 10 9 9 9 9 8 6 4 4 4 6 7 7 6 5 6 8 10 12 12 12 13 14 14 14 13 13 13 13 13 13 13 12 11 10 9 7 5 4 4 5 6 6 6 7 9 9 8 7 6 6 4 4 4 6 6 6 8 9 9 8 8 9 11 13 15
14 13 11 9 9 10 10 9 8 10 12 13 14 16 15 13 12 12 12 11 10 10 9 8 8 8 7 5 4 3 4 5 6 7 6 6 6 7 9 11 13 15 16 16 14 14 13 14 15 16 16 15 14 13 11 11 10 8 8 7 6 5 6 6 6 5 7 8 8 7 6 5 6 5 5 4 4 6 8 9 9 9 9 9 10 11 13
11 11 9 7 7 9 10 9 8 10 12 13 14 15 14 13 13 12 11 9 9 9 8 7 7 7 6 5 5 5 5 6 6 6 6 5 5 6 7 9 12 16 17 17 15 15 15 15 17 18 19 18 16 14 13 12 12 11 10 10 9 7 7 7 6 5 6 9 10 10 10 9 8 8 7 6 5 5 7 9 10 11 11 11 10 11 12
Wind_Direction
215 217 221 208 192 203 201 197 205 212 207 177 167 186 174 152 163 206 207 182 173 185 195 193 190 178 170 172 168 162 162 162 162 161 163 173 180 182 183 185 187 187 188 189 189 192 192 190 189 190 190 190 190 190 191 190 190 190 189 188 189 191 194 197 201 204 206 208 210 215 215 213 216 219 220 224 227 229 233 237 240 249 255 245 233 240 250
214 216 221 202 179 193 199 200 199 197 210 200 191 199 175 167 188 192 178 184 188 187 191 196 192 173 162 163 155 151 158 159 159 161 168 179 186 186 187 191 192 193 193 191 190 190 188 187 188 188 189 190 190 190 190 190 190 190 189 188 189 192 195 199 202 204 206 207 210 215 215 213 217 221 223 225 228 232 237 240 244 253 254 242 240 249 255
216 214 213 198 177 179 186 193 184 166 196 231 212 201 176 173 204 187 171 182 205 214 195 182 169 139 137 150 157 160 164 163 164 169 172 180 188 192 193 194 195 197 196 192 189 187 188 189 188 188 190 190 190 189 190 190 190 189 188 188 190 193 196 200 203 204 205 208 212 215 214 215 220 223 225 227 229 233 235 239 247 251 245 241 247 251 254
213 205 175 167 171 173 179 200 201 162 147 198 215 158 156 169 162 139 160 182 213 228 179 129 131 146 148 159 167 166 171 172 170 173 176 179 186 195 200 200 199 200 198 192 189 189 191 191 190 190 191 190 189 189 189 190 190 187 187 188 190 193 197 200 201 203 205 209 214 216 214 217 221 223 225 227 229 232 236 241 246 244 239 243 249 251 252
223 211 144 133 121 113 171 237 234 157 123 115 99 74 50 188 144 133 169 203 213 192 145 129 147 162 154 158 169 168 172 172 166 170 176 182 191 198 201 204 206 204 199 192 191 192 192 192 193 194 193 190 190 190 189 189 188 186 186 189 190 193 197 198 199 203 207 210 214 216 216 219 222 223 225 227 230 234 238 242 242 241 242 246 250 251 252
221 234 128 106 91 105 202 244 233 118 112 105 98 94 53 336 150 143 164 174 142 124 136 141 153 169 161 158 166 160 149 146 151 162 171 183 198 204 205 208 210 208 204 199 197 196 195 195 197 197 195 193 192 191 189 187 185 183 185 188 189 192 195 196 198 204 209 212 216 218 218 220 222 224 226 229 233 236 239 239 239 241 243 245 250 252 252
175 195 96 118 191 207 232 243 179 118 113 106 101 91 53 45 82 110 119 135 136 128 127 126 127 138 137 127 141 153 147 143 147 156 169 181 187 194 203 207 210 210 205 199 198 200 200 199 198 195 194 193 191 190 189 185 181 181 184 186 188 190 191 191 197 206 212 214 217 218 218 220 222 224 227 231 234 237 238 238 240 243 245 246 249 251 251
140 99 89 154 216 256 289 281 120 104 95 89 82 54 15 6 26 91 106 116 127 125 125 129 132 131 111 81 94 179 175 160 154 162 179 185 180 184 192 194 199 203 203 201 201 203 202 197 193 191 191 190 188 186 185 181 177 177 179 181 182 183 182 186 198 212 216 214 214 214 215 217 219 223 228 232 236 238 238 240 244 247 247 248 251 253 253
129 115 96 160 264 345 341 334 343 40 120 123 108 82 6 343 350 31 101 102 102 114 117 122 128 120 98 76 27 263 225 197 184 184 187 184 182 186 189 193 198 201 204 206 206 203 197 191 189 189 188 186 183 177 174 172 169 168 169 170 172 177 185 197 214 225 221 213 211 213 213 216 221 227 230 234 237 240 242 246 249 251 251 253 256 256 255
83 91 66 32 51 43 293 287 302 306 156 140 123 93 356 330 343 348 121 127 122 118 114 119 124 107 92 108 213 260 245 214 205 205 201 196 191 187 186 193 202 204 205 208 206 200 191 187 187 186 183 181 176 168 162 161 159 160 165 170 174 183 196 213 228 230 224 216 214 214 216 222 228 230 230 232 237 242 245 248 250 253 256 259 260 262 263
53 92 96 115 112 132 254 284 317 324 318 126 102 75 350 310 332 335 166 141 133 131 135 138 126 106 111 168 230 265 249 215 195 179 181 187 184 184 184 186 196 205 204 201 196 188 182 184 188 186 182 178 170 161 156 155 154 161 171 178 185 196 209 223 230 228 223 219 218 220 223 229 231 230 229 232 237 241 244 246 250 253 255 257 260 269 276
61 87 111 164 120 119 285 313 323 310 312 72 77 79 271 290 322 338 76 124 118 117 123 118 103 109 145 184 231 253 232 216 195 168 167 165 159 168 177 180 187 193 189 181 174 172 176 182 182 179 175 168 157 152 156 156 158 171 185 192 200 209 218 223 225 225 226 225 224 224 226 229 230 229 230 233 235 238 242 244 246 249 250 252 255 261 264
62 80 109 92 45 278 312 332 322 309 352 62 79 162 227 282 343 16 66 88 87 89 93 87 86 123 172 195 226 244 204 137 90 124 133 130 139 146 151 159 160 153 153 154 149 152 161 158 143 127 120 127 131 139 164 168 170 184 198 204 210 215 219 222 225 228 229 227 225 225 227 230 230 227 228 230 229 232 238 241 240 242 249 255 258 261 259
65 104 112 61 219 265 326 333 324 335 42 83 135 195 214 225 52 55 64 76 81 81 82 85 101 134 173 192 340 14 46 74 80 94 103 102 110 119 117 122 128 127 132 139 139 148 161 158 152 148 145 149 156 165 203 212 201 200 205 209 212 215 218 223 228 230 227 225 224 226 228 229 226 222 225 228 225 230 241 245 245 246 252 257 258 260 261
84 82 73 68 204 287 334 343 343 16 49 170 184 161 156 102 79 71 63 66 77 85 87 91 101 105 81 54 42 33 47 89 84 71 84 91 88 91 94 109 130 130 125 124 125 132 144 145 148 151 153 162 174 180 211 229 221 208 205 208 210 214 220 225 228 225 222 222 224 225 227 227 224 223 226 226 225 238 249 250 249 248 249 249 248 250 252
88 94 94 138 225 297 351 25 53 31 16 267 146 87 86 87 82 82 74 63 75 99 95 82 67 63 54 45 44 38 39 69 76 60 64 83 88 91 95 110 128 125 114 113 117 121 132 137 145 155 161 168 173 183 220 237 227 207 204 208 210 214 219 222 222 219 217 220 222 223 223 221 219 219 219 221 230 244 249 247 243 240 239 238 236 237 240
112 131 170 215 246 336 29 53 58 41 36 34 29 35 43 34 24 46 70 52 32 69 85 76 58 51 46 42 50 56 49 56 74 71 71 85 95 100 104 114 129 129 126 128 126 122 127 136 145 158 168 172 170 185 226 238 220 201 206 209 208 212 214 215 216 213 212 214 215 217 218 215 214 213 213 220 230 235 234 231 230 231 234 236 234 233 236
103 91 92 256 337 25 47 59 60 53 48 39 32 34 30 10 358 11 55 58 33 33 60 75 74 77 89 71 56 58 61 57 70 83 87 97 108 116 121 128 135 134 132 132 129 122 123 133 145 156 167 170 162 168 225 223 178 164 183 200 197 195 194 201 208 206 204 202 201 205 209 209 213 218 222 229 233 229 224 223 226 232 235 237 237 237 238
115 89 343 351 33 30 38 54 59 59 55 49 46 45 31 9 4 3 15 58 80 66 53 57 60 74 96 86 65 53 60 57 62 81 86 96 113 125 135 140 141 138 134 133 130 123 120 131 144 151 156 158 151 146 174 195 148 140 169 196 188 175 174 182 187 188 190 190 188 191 196 201 209 218 224 228 229 226 224 225 228 233 237 236 235 236 241
109 156 234 239 83 74 56 59 60 60 60 54 47 47 42 24 9 351 341 15 81 84 68 60 53 43 66 87 90 74 56 50 48 51 49 43 62 106 132 144 145 140 135 134 132 126 124 134 143 147 150 151 142 137 154 196 179 171 189 197 185 174 176 175 172 176 185 188 186 186 189 195 204 210 214 218 221 226 230 231 232 236 238 237 237 241 250
87 121 215 184 96 60 33 58 88 97 88 75 58 48 42 30 12 350 341 354 33 61 78 117 116 80 69 99 115 107 87 84 77 60 58 65 76 110 132 139 141 138 135 135 132 129 131 137 141 145 149 148 136 133 157 190 193 185 190 193 186 182 179 175 176 181 186 189 188 185 183 188 196 201 206 214 222 229 235 236 239 243 245 247 252 258 262
147 185 187 155 117 85 325 21 85 102 109 105 96 80 65 55 23 333 325 343 10 27 22 4 96 103 114 146 130 127 145 149 131 115 104 103 112 131 138 134 134 136 137 137 134 134 138 144 146 147 149 147 142 143 159 175 172 178 186 186 185 187 185 184 188 190 190 191 191 188 188 191 195 196 203 215 225 233 238 240 243 248 252 258 265 264 259
185 166 137 129 119 135 208 352 41 38 71 88 90 89 92 107 172 252 315 355 1 356 351 354 21 138 170 175 149 149 170 182 170 160 150 142 144 149 150 144 137 138 142 143 142 143 146 148 149 146 141 138 136 140 141 57 33 82 190 181 177 181 184 184 186 189 193 194 192 195 200 202 202 202 203 210 222 231 236 240 244 251 261 272 274 259 253
91 90 116 118 97 99 115 97 76 68 76 78 73 68 67 49 351 358 11 8 352 338 340 345 340 305 186 175 174 172 179 194 186 174 169 165 161 161 162 158 152 152 157 156 152 151 152 153 151 145 139 133 117 79 64 85 100 200 197 186 176 173 171 171 175 177 181 187 193 200 203 203 205 206 202 198 203 213 222 229 238 250 263 272 253 225 226
89 90 94 87 86 93 110 105 81 59 61 75 70 57 26 360 10 22 17 6 359 358 359 352 343 334 213 192 195 182 181 195 195 182 175 171 168 168 172 171 166 165 167 166 161 158 158 158 155 150 146 144 20 334 275 175 186 200 195 179 168 163 161 167 175 175 178 188 198 203 203 203 205 207 205 202 198 195 198 208 221 231 227 199 188 195 201
82 93 85 75 70 61 58 63 48 29 30 46 55 47 24 19 31 37 33 30 24 18 21 7 351 350 314 205 213 210 198 195 192 185 177 173 178 184 187 184 180 176 173 171 168 164 160 161 166 174 197 238 250 245 220 195 190 189 178 162 152 151 161 178 186 186 190 196 200 201 204 206 208 209 212 214 209 201 195 192 191 192 186 179 184 191 199
58 69 76 71 55 35 35 48 43 30 31 36 36 31 28 35 42 40 33 30 23 18 20 13 3 6 14 77 229 247 242 205 190 191 189 186 192 196 193 188 186 183 180 182 181 176 172 173 182 205 246 258 236 209 194 185 178 169 158 152 151 151 164 190 194 189 192 197 198 199 201 204 207 211 214 216 216 216 210 200 192 188 184 183 186 187 190
54 52 64 77 80 62 48 50 46 38 34 33 33 31 26 29 32 29 20 14 8 9 12 11 11 13 9 6 14 351 296 276 224 211 211 208 204 201 196 194 193 190 188 188 187 181 178 184 198 217 227 206 181 172 173 171 162 150 146 148 156 161 165 173 176 175 179 187 191 196 201 206 210 215 217 216 217 219 213 204 201 196 187 182 182 181 186
59 61 66 76 88 81 55 39 32 28 20 16 21 27 28 26 23 17 9 3 1 3 5 8 15 16 8 5 13 13 319 289 270 244 232 225 218 208 201 196 190 188 186 182 176 169 158 149 140 130 138 152 153 154 156 152 142 139 143 148 154 160 158 156 161 168 174 182 189 196 204 207 210 215 218 218 218 215 207 202 200 193 184 180 179 177 180
59 64 65 58 51 50 43 31 23 18 11 8 11 13 15 19 15 4 354 355 2 3 356 357 8 10 6 1 356 344 327 295 270 259 252 250 250 229 208 191 177 171 159 138 130 130 127 123 119 108 102 112 123 126 131 133 131 135 143 150 158 166 168 169 176 179 184 193 199 202 206 209 210 214 219 221 219 213 204 198 194 189 182 178 177 177 177
60 55 55 53 49 50 47 34 22 15 7 9 12 6 3 6 3 353 351 356 357 350 346 349 355 354 350 347 340 336 336 330 305 278 258 245 240 219 201 188 178 162 133 121 126 135 136 132 126 117 113 116 115 105 96 106 140 152 161 174 184 185 182 185 187 188 192 199 203 205 209 211 211 213 216 217 215 208 198 190 187 183 179 176 178 181 180
59 44 37 34 37 41 38 26 16 9 359 360 6 3 357 358 354 345 343 341 334 335 342 346 342 335 333 334 332 330 331 335 340 322 190 191 190 185 182 181 175 162 148 144 148 151 148 142 136 135 139 143 143 142 151 198 222 220 207 200 194 186 183 186 188 190 194 198 205 215 218 215 213 211 207 207 209 205 195 187 180 177 177 178 182 183 182
61 44 27 19 17 17 12 4 360 354 345 342 346 345 343 352 353 343 335 337 342 346 345 337 330 327 326 327 327 325 326 333 13 150 178 182 174 166 165 166 164 161 158 156 154 152 151 149 147 150 155 157 160 169 183 200 215 219 208 195 185 179 180 182 182 184 191 197 206 213 210 202 196 191 189 194 199 193 184 178 174 176 181 183 184 184 187
75 75 50 21 7 355 342 333 330 329 323 320 324 333 346 357 358 351 351 357 356 348 342 339 334 327 320 316 315 316 317 319 300 218 210 193 172 161 159 158 155 154 152 150 150 155 158 157 154 155 157 157 159 166 170 176 181 179 173 170 169 168 171 174 175 179 189 192 190 190 186 177 172 172 177 186 191 186 176 170 171 176 179 180 179 181 185
61 54 26 12 7 349 333 326 327 328 326 323 324 337 356 2 0 358 359 357 349 342 343 345 341 332 323 315 313 313 311 305 295 263 221 196 176 161 157 153 146 139 135 137 147 155 153 147 144 147 149 150 153 156 158 157 154 152 153 157 161 163 167 172 174 178 184 185 182 182 183 179 175 174 173 173 179 183 180 174 174 177 177 175 174 172 169
26 20 3 356 357 355 352 347 337 337 349 348 339 341 352 353 353 356 353 346 342 342 343 340 334 329 323 315 310 305 297 291 288 268 220 192 172 157 151 144 136 131 127 132 149 153 145 139 142 148 149 149 148 147 146 141 137 143 151 154 154 156 162 168 172 174 175 176 177 179 182 184 185 186 178 165 169 178 182 183 187 188 184 180 176 168 162
3 4 357 344 342 352 3 348 332 334 8 14 354 347 348 347 350 353 350 345 342 342 341 336 327 320 320 327 332 331 320 306 290 251 197 176 162 152 142 131 127 130 133 149 163 161 151 148 154 157 155 153 147 139 137 139 141 146 152 154 156 159 161 165 169 172 174 177 176 173 175 180 181 182 180 174 171 175 182 192 200 200 196 190 182 169 164
355 2 8 2 354 352 347 337 335 348 10 7 358 0 1 356 353 352 348 343 342 342 341 336 326 315 326 9 27 27 18 4 350 338 155 147 141 127 105 102 129 150 156 158 159 157 152 156 162 160 152 147 140 127 133 149 157 157 154 156 164 169 168 167 171 176 182 187 189 189 193 196 194 191 191 189 186 187 192 198 201 203 202 198 190 179 174
2 7 9 5 1 355 346 340 350 15 21 12 7 8 4 359 357 352 345 341 343 345 344 339 329 321 339 43 64 68 73 73 58 35 49 119 129 123 116 128 159 168 160 150 148 147 149 156 161 156 145 142 143 135 140 148 156 159 160 166 175 181 186 190 190 190 191 193 195 200 207 209 209 208 209 210 211 215 216 209 203 204 206 203 194 185 181
4 358 352 348 351 355 350 346 356 15 23 29 31 17 3 357 354 350 346 345 346 348 348 346 338 331 342 25 69 96 115 128 140 151 156 141 127 121 118 125 142 149 151 152 149 148 153 161 159 150 143 139 137 140 140 140 141 148 159 177 188 188 192 197 198 197 200 203 206 210 214 216 218 220 221 222 225 227 224 217 212 209 208 205 199 192 186
353 349 347 346 352 3 4 359 359 9 23 37 38 20 3 354 345 340 344 350 354 358 360 355 345 349 8 27 73 109 110 123 145 150 144 128 107 102 111 129 140 146 154 160 156 153 162 167 159 150 148 145 139 137 140 142 135 120 114 130 177 199 208 210 207 206 208 211 215 220 221 221 224 226 226 229 235 238 236 236 235 228 216 207 201 197 194
358 359 360 3 7 10 10 6 1 2 11 15 11 4 360 356 347 341 349 360 5 10 13 7 356 4 29 48 77 110 114 107 106 110 118 145 176 185 174 164 161 160 164 170 169 168 171 168 161 158 159 157 151 146 149 154 151 122 86 81 86 93 149 204 211 216 220 224 229 233 232 229 230 232 233 238 245 247 245 244 243 234 223 214 207 203 201
2 2 5 8 5 6 9 6 359 353 350 352 353 354 358 1 359 356 358 1 1 359 359 357 353 355 8 27 38 43 82 92 66 6 312 252 228 222 206 177 168 168 175 180 179 174 171 168 167 167 166 161 159 161 161 161 165 149 101 90 90 88 86 93 104 104 188 253 247 244 241 240 242 245 248 252 254 252 248 246 238 226 220 218 213 207 204
357 355 356 357 358 359 1 1 358 352 346 349 354 360 2 2 1 357 352 350 348 344 341 339 338 338 340 341 336 326 325 329 319 217 218 222 240 246 218 181 165 169 181 185 180 173 171 172 172 169 164 161 163 168 167 164 167 159 131 104 94 90 81 79 84 86 78 67 50 322 282 271 260 251 246 247 248 250 253 250 239 223 215 213 210 206 205
352 350 349 349 349 351 352 352 349 343 341 350 1 5 359 355 355 355 351 347 344 344 344 340 338 341 345 345 336 330 324 313 283 241 215 180 133 204 199 180 169 171 180 182 178 177 180 180 177 173 171 172 176 180 179 173 171 165 145 115 90 52 26 24 49 81 90 92 80 44 1 312 266 244 230 211 200 220 248 245 230 218 210 206 202 200 198
336 341 343 341 336 333 335 341 341 336 336 347 355 348 342 343 344 343 345 345 341 341 343 341 341 347 356 356 349 344 340 332 260 221 225 239 224 201 190 180 174 173 177 180 182 185 187 186 184 184 183 184 189 196 193 183 177 169 145 100 38 339 300 268 260 274 287 302 44 28 20 1 276 246 238 233 226 220 217 216 214 212 209 205 200 192 186
316 318 320 322 322 322 326 333 336 332 333 336 329 323 327 334 333 330 331 334 332 332 336 338 336 334 335 341 345 346 343 341 347 345 317 302 233 195 190 187 182 180 186 194 194 189 189 191 192 192 192 195 201 202 194 187 186 184 174 148 320 287 259 250 256 260 260 265 281 309 350 5 328 249 228 209 181 170 170 173 183 192 197 195 189 183 179
294 292 294 300 306 311 318 329 334 330 326 322 315 313 318 324 326 326 328 329 327 326 329 332 332 329 324 322 323 320 311 304 302 302 301 276 213 196 197 198 197 199 209 214 206 196 194 197 199 199 200 202 200 192 187 189 193 194 191 198 237 244 246 253 258 253 252 263 276 285 301 322 315 267 233 207 173 158 162 166 166 166 172 177 179 178 178
286 283 285 286 284 287 301 318 326 320 318 320 316 313 314 318 321 323 328 331 330 328 330 333 335 336 335 330 321 310 296 282 275 278 283 268 233 217 213 213 212 216 219 217 209 203 203 207 207 205 202 198 191 189 195 201 204 200 196 198 218 234 246 256 259 258 260 263 267 274 286 293 288 261 239 223 197 167 160 165 165 160 160 168 175 180 182
301 293 283 273 267 268 275 286 296 302 308 311 309 307 307 307 305 310 323 332 328 319 318 327 335 338 339 339 335 322 300 282 274 272 269 263 250 240 235 231 227 225 223 217 209 207 210 214 211 205 200 194 189 192 202 210 211 210 212 213 216 225 235 241 247 255 258 255 254 262 270 263 242 221 221 225 214 189 171 167 167 167 167 171 177 183 187
311 302 291 286 286 284 278 273 276 288 297 301 300 299 298 290 281 287 306 320 316 302 300 310 325 333 334 330 326 317 295 276 270 265 261 257 251 244 242 239 232 227 226 225 220 215 215 216 211 205 201 199 198 201 208 213 215 219 226 233 233 228 221 220 231 248 251 246 243 243 237 222 206 196 196 208 216 206 194 187 188 193 197 195 192 192 194
323 319 311 310 309 301 293 285 273 272 280 287 290 290 290 285 280 285 297 301 291 282 280 285 299 315 322 314 303 293 278 268 265 263 262 258 247 241 248 250 239 229 229 233 234 229 224 219 215 211 209 208 209 211 213 214 217 224 234 242 243 235 223 225 242 258 250 239 235 231 224 218 215 213 213 217 229 232 222 214 208 205 205 201 192 186 188
Height
688 686 684 682 684 687 687 688 690 690 691 696 701 704 706 711 720 726 724 723 726 722 716 713 707 703 704 704 703 703 705 708 710 712 714 716 718 720 722 723 723 723 724 725 727 729 731 734 737 739 742 745 746 750 752 755 759 761 765 768 771 774 776 778 781 782 784 785 786 789 790 791 792 793 794 796 798 799 801 801 802 802 802 802 802 802 802
686 684 684 682 682 684 685 685 685 685 689 693 696 697 698 701 704 707 712 720 717 706 702 702 697 696 699 700 701 703 705 708 712 714 715 715 715 716 718 719 719 719 720 720 722 725 728 731 734 736 739 741 743 746 749 752 755 758 761 765 768 771 774 776 778 780 781 783 784 786 787 788 789 790 792 794 795 797 798 798 799 800 800 800 800 801 800
689 681 680 682 681 682 685 686 684 683 685 688 692 695 697 701 704 705 711 722 718 700 692 695 697 697 699 702 704 705 706 707 710 713 714 714 714 714 714 715 716 716 716 717 719 721 724 726 729 731 734 736 739 742 744 748 750 753 757 761 764 767 770 772 774 776 779 780 782 783 784 785 786 788 790 791 792 794 794 795 796 797 797 798 798 798 798
694 679 679 684 681 681 687 687 685 686 688 690 692 693 694 697 703 711 721 726 716 699 692 697 701 700 701 703 704 705 707 707 708 710 712 713 713 713 713 713 713 713 714 715 717 718 720 722 725 727 730 732 736 738 741 744 747 750 754 756 760 763 766 769 771 774 776 777 778 780 781 782 784 786 788 789 789 791 791 792 793 794 794 795 795 795 795
694 680 678 680 682 696 706 696 686 687 688 689 690 691 691 690 693 707 720 715 701 693 693 699 704 703 703 704 704 705 707 707 708 709 710 712 712 712 712 712 711 711 711 711 712 714 716 719 721 722 725 728 731 733 737 740 743 747 750 753 756 760 762 766 768 771 773 774 775 777 778 780 782 784 786 786 787 787 788 789 791 791 792 792 792 793 793
694 686 675 678 696 715 713 691 679 682 684 686 691 695 695 692 688 691 697 694 690 693 696 699 705 705 702 701 701 701 702 705 708 708 708 709 710 709 710 710 709 709 708 708 709 711 713 715 716 719 722 724 727 730 733 737 740 744 748 751 754 757 760 763 766 769 771 771 773 775 776 778 780 782 783 784 784 785 786 787 788 788 789 790 790 791 791
692 687 681 698 718 715 695 679 674 677 678 681 688 694 692 691 689 686 688 690 689 691 694 697 702 704 702 701 701 699 699 700 703 706 707 707 707 707 708 708 708 708 707 707 708 709 711 712 715 718 721 723 726 729 732 735 738 742 745 748 751 754 757 761 765 768 768 769 771 772 774 776 778 779 781 781 782 784 784 785 785 786 787 788 788 789 789
693 691 694 712 718 699 681 677 675 675 679 681 688 698 698 693 691 689 691 693 689 687 689 692 697 701 702 703 702 700 698 697 698 702 704 703 703 703 703 704 704 704 704 705 706 707 709 711 714 716 719 721 724 728 730 733 737 740 744 748 751 755 758 761 765 766 766 767 769 770 772 774 776 777 778 779 780 782 783 783 784 784 785 786 786 787 787
695 698 702 704 705 700 694 688 681 678 681 681 687 703 706 697 694 693 691 694 693 688 688 691 694 699 704 710 709 701 697 697 695 696 697 697 698 699 698 699 699 699 700 701 702 704 706 709 711 713 716 719 722 725 729 732 736 739 743 747 752 756 759 761 762 764 764 765 767 768 770 772 773 774 775 777 779 781 782 783 783 784 784 785 785 786 785
694 699 707 709 716 720 711 698 684 674 674 671 675 697 709 699 694 697 693 692 694 692 694 697 697 700 712 722 716 703 697 696 693 694 695 693 694 694 694 695 696 696 698 699 701 704 706 708 710 711 714 717 720 724 728 731 735 738 741 745 749 752 755 757 759 761 763 763 764 766 767 768 769 770 773 776 778 779 780 781 781 781 782 783 784 785 784
694 699 711 718 723 722 710 696 682 674 674 667 669 701 722 706 694 698 695 692 693 693 696 699 699 706 722 728 716 702 698 696 692 693 694 692 691 691 690 692 694 695 697 699 702 704 706 707 709 710 712 714 718 724 728 732 735 738 740 744 746 747 750 753 757 759 760 760 762 763 764 764 766 768 770 771 773 774 775 776 777 778 778 779 780 782 784
699 702 710 713 713 711 704 695 686 678 672 667 684 725 736 709 696 698 695 694 696 695 697 700 703 711 721 721 712 701 697 695 692 691 691 690 689 688 689 690 692 693 696 699 702 705 706 708 711 714 718 721 723 728 732 732 733 736 739 741 743 746 748 752 755 756 757 758 759 760 761 762 763 765 767 768 770 772 773 774 775 775 775 775 774 775 777
703 705 710 713 711 704 697 692 687 676 671 684 715 738 727 704 701 701 695 697 700 697 699 703 706 709 710 707 703 697 693 693 691 690 689 688 687 688 689 691 693 695 698 700 703 705 707 710 715 720 729 735 738 742 744 739 734 735 739 741 743 745 748 750 753 753 754 756 758 758 759 760 762 763 765 766 768 769 771 772 772 771 771 772 772 772 773
713 711 714 719 717 702 691 689 682 673 685 711 727 721 706 702 705 701 698 700 699 698 701 704 706 707 703 701 699 694 692 692 692 690 689 689 689 690 692 694 695 697 699 701 703 705 705 708 711 714 723 734 740 745 751 749 741 737 739 741 742 744 746 748 750 751 753 755 756 757 758 759 761 762 763 764 765 767 769 769 768 768 768 769 770 770 771
716 716 718 726 725 706 689 688 686 686 700 713 710 703 702 704 701 700 701 701 698 699 702 703 704 705 703 702 699 695 694 694 693 693 693 692 693 693 694 696 697 697 700 702 704 707 708 711 713 714 719 727 733 739 746 748 744 740 739 741 742 743 745 746 747 749 751 753 754 755 756 758 759 760 761 762 763 764 765 765 765 765 766 767 768 768 768
711 718 723 726 723 707 691 691 700 704 705 702 699 702 705 702 699 699 701 700 699 699 700 701 703 702 702 703 701 698 698 697 696 696 695 694 695 695 696 698 698 698 701 704 706 709 711 713 716 718 720 725 730 736 742 745 744 741 740 741 742 742 743 745 746 748 750 751 752 753 754 756 758 758 759 760 760 761 761 761 762 763 763 765 766 765 764
709 715 719 715 710 703 694 695 701 704 702 702 703 706 706 705 703 700 699 701 701 699 697 700 702 703 704 704 702 700 701 700 698 698 697 696 698 698 698 699 700 700 702 704 707 711 712 714 718 720 722 726 729 733 740 744 742 739 739 739 740 740 742 743 745 747 748 749 750 751 752 754 755 755 757 757 757 757 758 759 760 761 761 762 762 761 762
708 708 711 709 707 705 700 697 700 702 704 706 707 708 712 712 709 704 701 702 704 703 701 700 702 705 706 704 703 702 702 702 701 699 699 699 699 699 700 700 701 701 703 705 708 711 713 715 717 719 723 726 726 730 739 743 737 735 739 741 740 739 740 741 743 744 745 746 748 749 751 752 752 753 754 754 754 755 756 757 758 759 759 759 759 759 759
711 713 714 709 708 709 705 701 701 702 704 707 708 712 716 716 714 713 708 704 706 707 706 705 707 706 702 701 704 704 704 704 703 701 701 701 701 701 702 702 702 703 704 706 709 711 713 715 716 718 721 723 722 727 738 741 735 735 742 744 741 738 738 739 740 741 742 744 746 747 749 749 750 751 751 752 752 753 754 755 756 757 757 757 757 757 757
710 713 712 706 706 708 706 705 706 705 706 708 707 709 713 715 719 720 714 707 704 702 704 709 711 708 703 702 704 705 706 706 705 704 704 704 704 704 704 704 704 704 705 707 709 711 712 714 714 716 719 723 722 725 733 738 736 737 741 741 738 738 738 738 739 740 741 743 744 745 746 747 748 748 749 749 750 751 752 754 754 755 755 755 755 755 755
713 712 709 705 705 707 706 706 707 708 708 708 709 710 711 715 719 720 714 707 703 701 705 709 709 707 706 704 703 706 707 706 706 706 706 706 706 706 706 706 707 706 707 708 710 712 713 714 714 715 718 723 724 724 730 736 736 736 737 736 736 738 738 738 739 739 740 742 742 743 744 744 745 746 747 748 749 750 751 752 752 753 753 752 753 753 753
715 711 706 704 705 710 710 706 705 707 707 708 710 712 713 717 723 725 719 711 705 704 707 707 705 706 707 705 705 707 707 706 707 707 706 706 707 708 708 708 708 708 709 710 710 712 714 715 717 718 720 722 724 727 731 735 734 733 733 733 735 737 736 737 738 739 739 740 741 741 742 742 744 745 745 747 748 749 749 750 750 750 750 750 750 750 750
708 703 702 703 704 710 711 707 705 707 707 708 710 711 712 716 720 721 718 714 710 709 707 706 706 707 706 706 706 706 706 706 706 705 706 706 707 708 709 709 709 709 710 710 710 711 713 715 717 720 721 723 726 728 729 730 730 733 734 734 735 736 736 737 737 737 738 739 739 740 741 741 743 744 745 746 747 748 748 748 748 748 748 748 748 748 749
702 701 702 702 704 709 711 709 709 709 708 709 711 711 712 714 713 712 713 714 715 714 711 708 707 707 706 706 706 705 706 706 705 705 707 706 706 708 708 708 709 709 709 710 710 711 713 715 717 719 722 724 726 727 727 727 730 734 735 735 735 736 735 735 736 736 737 738 738 739 740 741 742 743 744 745 746 747 747 747 747 747 747 747 747 747 748
700 702 702 702 706 710 711 709 710 711 710 711 713 713 714 713 712 711 713 715 716 716 714 712 710 707 706 706 705 704 705 704 704 705 706 707 708 708 708 708 708 708 708 710 711 712 714 717 719 720 721 724 726 727 728 729 731 733 734 734 734 734 734 734 735 736 737 737 738 739 739 740 741 742 742 743 744 745 746 746 746 746 746 746 747 747 747
701 702 702 704 708 711 711 712 714 714 714 713 714 716 716 715 714 714 715 717 717 715 715 714 711 708 706 706 705 705 704 704 705 705 706 707 708 708 707 708 708 708 709 711 712 714 716 718 720 721 721 722 724 725 728 729 730 731 732 732 733 733 733 734 735 736 737 737 738 738 739 740 740 741 741 742 742 743 744 745 745 746 746 746 747 747 747
704 704 704 710 716 718 717 719 720 719 717 716 717 717 717 716 716 717 716 716 716 715 715 714 712 709 708 707 706 707 706 706 706 706 706 706 705 705 706 708 708 709 711 711 712 714 715 717 719 720 721 722 722 722 725 728 729 729 730 731 732 732 733 734 735 736 736 737 737 738 738 739 739 740 740 740 741 742 742 743 744 745 746 746 747 747 747
710 710 710 717 724 725 722 721 721 719 719 719 719 718 717 716 716 717 717 716 716 715 714 714 713 711 710 709 708 708 709 708 708 707 706 705 704 705 706 708 709 710 711 711 713 715 717 719 721 721 722 723 723 723 725 727 728 729 729 730 731 733 733 734 735 735 736 736 737 737 738 738 739 739 739 739 740 741 742 743 744 745 745 746 747 747 748
716 716 717 719 722 722 721 720 721 720 720 720 719 718 718 718 719 719 719 718 717 716 715 715 714 713 712 711 710 710 709 709 709 707 706 705 705 706 707 708 709 710 711 713 715 716 718 720 721 723 724 725 725 726 727 727 728 729 730 731 732 734 734 735 735 735 736 736 737 737 738 738 738 739 738 739 739 740 741 742 743 744 745 746 746 747 748
719 718 720 721 721 721 722 723 725 725 723 722 721 720 720 720 721 721 720 718 718 717 716 715 714 714 713 712 712 711 710 709 708 707 706 706 707 707 708 708 710 711 712 714 715 716 717 719 720 723 725 726 727 728 729 729 730 730 731 732 733 734 734 735 735 736 737 737 737 737 738 738 738 738 738 738 739 740 740 741 742 743 744 745 746 747 747
720 719 720 722 723 724 726 728 728 728 726 725 724 724 723 722 722 722 721 720 719 718 717 715 714 714 713 712 712 711 710 709 707 706 707 707 707 707 707 707 709 710 712 714 715 715 716 717 719 720 722 723 725 728 730 732 733 732 732 732 733 733 734 735 735 736 737 737 737 737 737 737 737 738 738 738 738 739 740 741 741 742 743 744 745 746 747
721 721 722 723 724 725 727 728 728 727 727 726 726 725 725 724 723 722 721 720 719 718 717 716 715 713 712 712 711 710 710 709 708 706 706 706 706 706 706 707 708 709 711 712 712 713 714 715 717 718 719 720 722 723 726 730 732 732 732 732 732 733 734 734 735 736 737 737 737 737 737 737 737 736 737 738 738 739 740 740 741 742 743 744 745 746 747
724 726 727 727 726 727 728 728 728 728 727 726 726 725 724 724 723 722 721 720 719 717 717 716 715 713 711 710 709 709 709 709 709 708 706 706 706 706 706 707 708 709 710 711 712 712 713 714 716 717 718 720 721 722 723 726 728 730 731 731 731 732 733 734 735 736 736 737 737 737 736 736 736 736 737 738 738 739 740 740 742 743 744 744 745 746 747
727 730 730 729 728 728 729 728 728 728 727 726 725 724 723 723 723 723 722 720 719 718 717 716 714 713 711 710 709 708 708 708 709 708 707 706 705 706 706 707 708 709 710 711 712 713 714 715 717 718 719 720 722 723 724 725 727 728 729 730 731 732 733 734 735 736 736 737 737 736 736 736 736 736 737 738 738 739 740 741 742 743 744 745 746 747 747
729 729 729 729 728 728 728 727 727 726 726 725 725 724 724 724 723 722 722 721 720 719 717 715 714 713 711 710 708 707 707 707 706 706 705 705 705 705 705 706 708 709 710 712 713 714 714 716 718 720 721 721 722 724 725 726 727 728 729 730 732 732 733 734 735 736 736 736 736 736 736 736 736 737 738 738 739 740 740 741 743 743 744 745 746 747 747
729 730 730 729 728 728 728 728 728 727 726 726 725 724 724 723 722 722 722 721 720 719 717 716 715 714 712 710 709 707 706 705 703 703 703 704 704 704 705 706 708 709 711 714 716 716 716 717 719 721 723 723 724 724 725 726 726 728 729 731 731 732 733 734 735 736 736 736 736 736 736 736 737 737 738 738 739 740 740 741 742 743 744 745 745 746 747
731 731 730 729 728 728 728 727 727 726 726 726 725 724 724 723 722 722 721 720 719 719 718 717 716 714 713 711 709 707 706 704 702 701 702 703 704 705 706 707 709 711 712 715 716 717 718 719 721 722 723 723 724 724 725 726 727 728 729 730 731 732 733 734 735 736 736 736 736 736 736 737 737 737 738 738 739 740 740 741 741 742 743 744 744 745 746
732 731 731 731 730 729 728 727 726 726 726 725 725 725 725 724 723 722 721 720 720 719 718 717 716 715 712 710 708 707 707 707 707 706 705 705 705 706 708 710 713 713 713 713 714 716 718 720 721 721 721 722 723 724 725 726 727 727 728 730 731 732 732 733 734 735 735 735 736 736 736 737 737 737 738 739 739 739 740 740 740 741 742 742 743 744 745
734 733 732 732 731 730 729 728 727 727 726 726 726 725 725 724 723 722 721 720 720 719 718 716 715 714 712 710 708 707 706 706 706 709 710 708 704 703 706 709 711 712 712 712 714 716 718 719 720 720 721 722 723 724 725 726 727 727 728 729 730 731 732 732 733 734 734 735 735 736 736 736 737 737 738 738 738 739 739 739 740 740 740 741 742 743 744
735 735 734 732 732 732 731 729 729 728 727 727 727 726 725 724 723 722 721 721 720 719 718 716 715 713 712 711 709 708 706 704 703 706 710 710 705 702 704 707 709 710 712 713 714 716 718 719 720 721 722 723 724 725 726 727 727 728 728 729 729 730 731 732 732 733 734 734 734 735 735 736 736 737 737 737 737 737 738 738 738 739 739 739 740 741 742
736 735 734 733 733 732 731 731 730 729 728 728 728 727 726 726 725 724 723 722 721 720 719 717 716 714 713 712 710 709 708 707 705 705 707 709 708 706 706 707 709 710 712 713 714 716 718 720 720 722 723 724 725 726 726 727 727 728 729 729 730 730 731 731 731 732 732 733 733 733 734 734 735 735 735 736 736 735 736 736 736 737 737 738 738 739 740
736 736 735 734 733 733 732 731 731 730 729 729 728 727 727 726 725 724 723 722 721 720 719 718 717 716 714 713 712 711 709 709 710 710 709 710 711 710 708 708 710 711 712 714 715 717 719 720 721 722 723 724 725 726 726 727 728 728 729 729 729 729 730 731 731 731 732 732 732 732 732 733 733 734 734 734 734 733 734 734 734 735 736 736 736 737 738
736 735 734 734 733 732 731 731 731 730 729 728 727 727 726 725 724 723 723 722 722 721 720 719 718 717 716 715 714 714 713 712 714 714 714 713 712 711 710 710 711 712 713 715 716 718 719 721 722 722 723 724 725 726 727 727 727 728 728 729 729 729 730 730 731 731 731 731 731 731 732 732 732 732 732 731 731 731 731 731 732 732 733 734 734 735 736
736 735 734 733 733 731 731 730 729 729 728 727 726 726 725 724 723 723 723 722 722 722 721 720 719 718 717 716 715 715 715 714 715 716 715 714 713 712 711 712 713 713 714 715 717 718 719 720 721 722 723 724 725 726 726 726 727 727 728 728 729 729 730 730 730 730 730 730 730 731 731 731 730 730 730 729 729 728 728 728 729 730 731 732 732 733 734
735 734 733 733 732 730 730 729 729 728 728 727 726 726 725 725 724 724 723 723 723 722 721 721 720 718 718 717 716 715 715 715 715 715 715 714 713 713 712 713 714 714 715 716 717 718 719 721 721 722 723 724 724 725 725 726 726 727 727 727 728 728 729 729 729 729 729 730 730 730 730 730 730 729 729 728 728 727 727 726 727 728 729 730 731 731 732
734 733 733 732 732 731 730 730 729 729 729 727 727 727 726 725 725 724 723 723 723 721 720 720 720 719 718 717 716 715 715 715 714 714 714 713 713 713 713 714 715 715 715 716 717 718 719 720 721 722 723 723 724 724 725 725 725 726 726 727 727 728 728 728 728 728 729 729 729 729 729 729 729 729 728 727 727 726 726 726 726 727 728 728 729 729 730
734 733 733 733 732 731 731 731 730 730 729 728 728 727 726 725 725 724 723 723 722 721 720 719 719 718 718 717 716 715 715 714 714 714 713 713 713 713 713 714 715 715 716 716 717 718 719 720 721 721 722 722 723 723 724 724 725 725 725 726 726 727 727 727 728 728 728 728 728 728 728 728 728 728 727 727 726 726 725 725 726 726 727 728 728 729 730
734 733 733 732 732 731 731 731 731 730 730 729 728 727 726 725 725 724 723 722 721 720 720 719 718 717 717 716 716 716 715 715 714 714 714 714 714 714 714 714 715 715 716 716 717 718 718 719 720 720 721 721 722 722 723 723 724 724 724 725 725 726 726 727 727 727 727 727 727 727 727 727 727 727 727 726 726 725 725 725 726 726 727 728 729 730 730
732 732 731 731 731 731 731 731 730 730 730 729 728 727 726 725 724 723 722 722 721 720 719 718 717 716 715 715 715 715 715 714 714 714 714 714 714 714 714 714 715 715 715 715 716 717 718 718 719 719 720 720 720 721 722 722 723 723 724 724 724 725 725 725 726 726 726 726 726 726 726 726 726 726 726 725 725 725 724 725 725 726 727 728 729 729 730
730 729 729 729 729 729 730 730 730 729 729 729 728 726 725 725 724 722 721 720 720 719 718 717 716 715 715 714 714 714 714 714 714 714 713 713 714 714 714 714 714 714 715 715 715 716 716 717 717 718 718 719 719 720 720 721 722 722 723 723 723 723 723 724 724 725 725 725 725 724 724 724 724 724 724 724 724 724 724 724 724 725 726 727 728 729 729
729 728 728 727 728 728 728 728 729 728 728 727 726 725 724 723 722 721 720 720 719 718 717 716 716 715 714 713 713 713 713 713 712 712 713 713 713 713 713 713 714 714 714 714 714 715 715 715 716 717 717 718 718 718 719 720 720 721 721 721 721 721 722 722 723 723 723 723 723 723 723 723 723 723 723 723 723 723 723 722 723 724 725 725 726 727 728
729 727 726 726 727 726 726 726 727 727 726 725 724 723 722 721 720 720 719 718 717 716 716 716 715 713 713 713 712 712 712 712 712 711 711 711 711 712 712 712 712 713 713 713 714 714 714 714 714 715 715 716 716 717 717 718 718 719 719 719 719 720 720 720 721 721 721 721 722 721 721 721 721 722 721 721 722 722 721 721 721 722 722 723 724 725 726